Weather History for Walla Walla, WA

Change the Weather History Date:

Friday, April 25, 2014

  Actual Average Record
Temperature  
Mean Temperature 48 °F -  
Max Temperature 53 °F 62 °F 88 °F (1977)
Min Temperature 44 °F 41 °F 33 °F (1955)
Degree Days  
Heating Degree Days 16    
Moisture  
Dew Point 39 °F    
Average Humidity 72    
Maximum Humidity 79    
Minimum Humidity 50    
Precipitation  
Precipitation 0.08 in - - ()
Sea Level Pressure  
Sea Level Pressure 29.81 in    
Wind  
Wind Speed 7 mph (SSE)    
Max Wind Speed 13 mph    
Max Gust Speed -    
Visibility 8 miles    
Events Rain    
Averages and records for this station are not official NWS values.
T = Trace of Precipitation, MM = Missing Value Source: NWS Daily Summary

Daily Weather History Graph

Daily Weather History Graph

Search for Another Location

Airport:

Trip Planner

Search our weather history database for the weather conditions in past years. The results will help you decide how hot, cold, wet, or windy it might be!

Date:

Astronomy

Apr. 25, 2014 Rise Set
Actual Time 5:49 AM PDT 7:53 PM PDT
Civil Twilight 5:16 AM PDT 8:26 PM PDT
Nautical Twilight 4:36 AM PDT 9:06 PM PDT
Astronomical Twilight 3:52 AM PDT 9:51 PM PDT
Moon 3:53 AM PDT (4/25) 4:09 PM PDT (4/25)
Length of Visible Light 15h 09m
Length of Day
14h 04m
Waning Crescent, 14% of the Moon is Illuminated
Apr 25
Waning Crescent
Apr 28
New
May 6
First Quarter
May 14
Full
May 21
Last Quarter

Hourly Weather History & Observations

Time (PDT) Temp. Windchill Dew Point Humidity Pressure Visibility Wind Dir Wind Speed Gust Speed Precip Events Conditions
12:53 AM 48.9 °F - 41.0 °F 74% 29.88 in 10.0 mi South 12.7 mph - 0.00 in Rain Light Rain
1:53 AM 48.0 °F - 39.9 °F 74% 29.86 in 10.0 mi South 10.4 mph - 0.00 in   Overcast
2:53 AM 46.9 °F - 39.9 °F 77% 29.85 in 10.0 mi South 8.1 mph - N/A   Overcast
3:53 AM 48.0 °F - 37.9 °F 68% 29.84 in 10.0 mi South 9.2 mph - N/A   Overcast
4:53 AM 46.9 °F - 37.9 °F 71% 29.83 in 10.0 mi SSE 6.9 mph - N/A   Overcast
5:53 AM 46.9 °F - 37.9 °F 71% 29.83 in 10.0 mi SE 6.9 mph - 0.00 in Rain Light Rain
6:53 AM 46.0 °F 42.5 °F 37.9 °F 73% 29.83 in 10.0 mi ESE 6.9 mph - 0.00 in   Overcast
7:53 AM 46.0 °F 41.9 °F 39.9 °F 79% 29.84 in 10.0 mi South 8.1 mph - 0.00 in Rain Light Rain
8:53 AM 46.0 °F 41.4 °F 39.9 °F 79% 29.85 in 4.0 mi South 9.2 mph - 0.01 in Rain Light Rain
9:43 AM 46.0 °F 43.9 °F 39.0 °F 76% 29.84 in 8.0 mi SSW 4.6 mph - 0.01 in Rain Light Rain
9:53 AM 46.0 °F 43.9 °F 39.0 °F 76% 29.85 in 8.0 mi South 4.6 mph - 0.01 in Rain Light Rain
10:53 AM 46.0 °F 43.9 °F 39.9 °F 79% 29.83 in 4.0 mi SSE 4.6 mph - 0.03 in Rain Light Rain
11:53 AM 46.0 °F 44.8 °F 39.0 °F 76% 29.83 in 4.0 mi ESE 3.5 mph - 0.01 in Rain Light Rain
12:53 PM 46.9 °F - 39.0 °F 74% 29.82 in 5.0 mi NE 3.5 mph - 0.01 in Rain Light Rain
1:53 PM 48.0 °F - 41.0 °F 77% 29.81 in 6.0 mi Calm Calm - 0.00 in Rain Light Rain
2:13 PM 48.0 °F - 41.0 °F 77% 29.80 in 4.0 mi Calm Calm - 0.00 in Rain Light Rain
2:53 PM 48.9 °F - 41.0 °F 74% 29.80 in 8.0 mi Calm Calm - 0.01 in Rain Light Rain
3:53 PM 50.0 °F - 41.0 °F 71% 29.78 in 10.0 mi Calm Calm - 0.00 in   Mostly Cloudy
4:53 PM 52.0 °F - 39.9 °F 63% 29.76 in 10.0 mi Calm Calm - N/A   Mostly Cloudy
5:53 PM 51.1 °F - 39.0 °F 63% 29.77 in 10.0 mi SSW 3.5 mph - N/A   Overcast
6:53 PM 53.1 °F - 35.1 °F 50% 29.76 in 10.0 mi Calm Calm - N/A   Scattered Clouds
7:53 PM 48.9 °F - 37.9 °F 66% 29.76 in 10.0 mi SSW 3.5 mph - N/A   Clear
8:53 PM 46.9 °F - 37.0 °F 68% 29.77 in 10.0 mi ENE 4.6 mph - N/A   Clear
9:53 PM 44.1 °F 39.5 °F 37.0 °F 76% 29.77 in 10.0 mi ESE 8.1 mph - N/A   Clear
10:53 PM 44.1 °F 40.1 °F 36.0 °F 73% 29.77 in 10.0 mi ESE 6.9 mph - N/A   Mostly Cloudy
11:53 PM 45.0 °F 42.6 °F 37.0 °F 74% 29.76 in 10.0 mi ESE 4.6 mph - N/A   Overcast